Location: Crescent
(42.8242°N, 73.7329°W)
Time: 04:38:46
(UTC+00:00)

A-11 Canister half - Pass Details

Date: 17 February 2026
Orbit: 1524 x 1683 km, 47.3° (Epoch: 14 March)

Event Time Altitude Azimuth Distance (km) Brightness Sun altitude
Rises 03:53:47 0° 296° (WNW) 4,678 12.0 -55.1°
Reaches altitude 10° 03:56:53 10° 292° (WNW) 3,699 11.3 -55.4°
Enters shadow 03:58:27 16° 289° (WNW) 3,222 10.9 -55.6°
